Weather History for Wheeler AAF, HI

Change the Weather History Date:

Tuesday, March 26, 2013

  Actual Average Record
Temperature  
Mean Temperature 69 °F -  
Max Temperature 77 °F 74 °F 80 °F (2001)
Min Temperature 61 °F 62 °F 60 °F (2003)
Cooling Degree Days 4    
Growing Degree Days 19 (Base 50)    
Moisture  
Dew Point 64 °F    
Average Humidity 82    
Maximum Humidity 94    
Minimum Humidity 65    
Precipitation  
Precipitation 0.30 in - - ()
Sea Level Pressure  
Sea Level Pressure 29.99 in    
Wind  
Wind Speed 3 mph (NNW)    
Max Wind Speed 8 mph    
Max Gust Speed -    
Visibility 8 miles    
Events Rain    
Averages and records for this station are not official NWS values.
T = Trace of Precipitation, MM = Missing Value Source: NWS Daily Summary

Daily Weather History Graph

Daily Weather History Graph

Search for Another Location

Airport:

Trip Planner

Search our weather history database for the weather conditions in past years. The results will help you decide how hot, cold, wet, or windy it might be!

Date:

Astronomy

Mar. 26, 2013 Rise Set
Actual Time 6:30 AM HST 6:45 PM HST
Civil Twilight 6:08 AM HST 7:07 PM HST
Nautical Twilight 5:42 AM HST 7:33 PM HST
Astronomical Twilight 5:16 AM HST 7:59 PM HST
Moon 6:30 PM HST (3/26) 5:52 AM HST (3/26)
Length of Visible Light 12h 59m
Length of Day
12h 15m
Full, 100% of the Moon is Illuminated
Mar 26
Full
Mar 26
Full
Apr 2
Last Quarter
Apr 9
New
Apr 18
First Quarter

Hourly Weather History & Observations

Time (HST) Temp. Dew Point Humidity Pressure Visibility Wind Dir Wind Speed Gust Speed Precip Events Conditions
12:55 AM 63.9 °F 61.5 °F 92% 29.98 in 10.0 mi Calm Calm - N/A   Clear
1:55 AM 63.9 °F 61.7 °F 93% 29.96 in 10.0 mi Calm Calm - N/A   Overcast
2:55 AM 63.5 °F 61.5 °F 93% 29.95 in 10.0 mi NW 4.6 mph - N/A   Clear
3:55 AM 62.4 °F 60.4 °F 93% 29.94 in 10.0 mi NW 3.5 mph - N/A   Clear
4:55 AM 62.8 °F 61.0 °F 94% 29.95 in 10.0 mi Calm Calm - N/A   Clear
5:55 AM 62.4 °F 60.8 °F 94% 29.98 in 10.0 mi NNW 3.5 mph - N/A   Clear
6:55 AM 61.9 °F 60.3 °F 94% 29.99 in 10.0 mi NW 3.5 mph - N/A   Clear
7:55 AM 66.4 °F 63.9 °F 92% 30.01 in 10.0 mi Calm Calm - N/A   Clear
8:55 AM 71.8 °F 66.7 °F 84% 30.03 in 10.0 mi Calm Calm - N/A   Clear
9:55 AM 74.1 °F 65.5 °F 74% 30.03 in 10.0 mi North 5.8 mph - N/A   Mostly Cloudy
10:55 AM 75.9 °F 64.0 °F 67% 30.03 in 10.0 mi Variable 3.5 mph - N/A   Partly Cloudy
11:37 AM 75.2 °F 64.4 °F 69% 30.02 in 10.0 mi NW 6.9 mph - N/A   Light Drizzle
11:46 AM 75.2 °F 64.4 °F 69% 30.02 in 10.0 mi NW 6.9 mph - N/A   Mostly Cloudy
11:55 AM 75.0 °F 65.7 °F 73% 30.01 in 10.0 mi North 6.9 mph - 0.00 in   Mostly Cloudy
12:46 PM 77.0 °F 64.4 °F 65% 29.99 in 7.0 mi WNW 5.8 mph - N/A Rain Light Rain
12:47 PM 77.0 °F 64.4 °F 65% 29.99 in 3.0 mi NW 3.5 mph - N/A Rain Light Rain
12:48 PM 75.2 °F 64.4 °F 69% 29.99 in 2.0 mi NW 4.6 mph - N/A Rain Light Rain
12:49 PM 75.2 °F 64.4 °F 69% 29.99 in 1.8 mi North 4.6 mph - N/A Rain Light Rain
12:55 PM 74.7 °F 65.3 °F 73% 29.99 in 1.5 mi ENE 8.1 mph - 0.12 in Rain Heavy Rain
12:58 PM 73.4 °F 64.4 °F 73% 29.99 in 2.5 mi ENE 8.1 mph - N/A Rain Rain
12:59 PM 73.4 °F 64.4 °F 73% 29.99 in 4.0 mi ENE 8.1 mph - N/A Rain Rain
1:52 PM 71.6 °F 66.2 °F 83% 29.98 in 10.0 mi SE 4.6 mph - N/A   Mostly Cloudy
1:55 PM 71.6 °F 66.9 °F 85% 29.98 in 10.0 mi Calm Calm - 0.01 in   Mostly Cloudy
1:58 PM 71.6 °F 66.2 °F 83% 29.98 in 10.0 mi Calm Calm - N/A   Light Drizzle
2:05 PM 71.6 °F 66.2 °F 83% 29.98 in 2.5 mi Calm Calm - N/A Rain Light Rain
2:14 PM 71.6 °F 68.0 °F 88% 29.98 in 3.0 mi West 3.5 mph - N/A Rain Light Rain
2:28 PM 69.8 °F 66.2 °F 88% 29.97 in 2.5 mi West 4.6 mph - N/A Rain Heavy Rain
2:37 PM 69.8 °F 66.2 °F 88% 29.97 in 3.0 mi NW 4.6 mph - N/A Rain Heavy Rain
2:55 PM 70.3 °F 66.9 °F 89% 29.97 in 4.0 mi West 3.5 mph - 0.16 in Rain Rain
3:19 PM 71.6 °F 68.0 °F 88% 29.96 in 10.0 mi Variable 4.6 mph - N/A   Mostly Cloudy
3:42 PM 71.6 °F 66.2 °F 83% 29.96 in 10.0 mi East 6.9 mph - N/A   Mostly Cloudy
3:55 PM 71.8 °F 66.6 °F 84% 29.96 in 10.0 mi SSE 3.5 mph - 0.01 in   Mostly Cloudy
4:55 PM 73.9 °F 64.6 °F 72% 29.96 in 10.0 mi South 3.5 mph - N/A   Partly Cloudy
5:55 PM 72.3 °F 64.9 °F 78% 29.97 in 10.0 mi Variable 4.6 mph - N/A   Overcast
6:55 PM 70.9 °F 63.5 °F 77% 29.99 in 10.0 mi East 4.6 mph - N/A   Mostly Cloudy
7:55 PM 69.8 °F 63.1 °F 79% 30.00 in 10.0 mi Calm Calm - N/A   Partly Cloudy
8:55 PM 66.7 °F 63.0 °F 88% 30.02 in 10.0 mi NW 4.6 mph - N/A   Scattered Clouds
9:55 PM 65.8 °F 62.6 °F 89% 30.02 in 10.0 mi WNW 3.5 mph - N/A   Scattered Clouds
10:55 PM 65.7 °F 62.6 °F 90% 30.02 in 10.0 mi NNW 3.5 mph - N/A   Clear
11:55 PM 65.7 °F 62.6 °F 90% 30.01 in 10.0 mi NW 3.5 mph - N/A   Clear